User: anonymous   Login
Location: Mt. Stromlo, Australia
(35.3200°S, 149.0080°E)
Time: 00:25:22
(UTC+11:00)
Language:

Molniya-1T - Orbit

View from above orbital plane
View from above orbital plane
View from above satellite
View from above satellite

Ground track
Ground track

The orbit data is extracted from the following two-line orbital elements,

1 24960U 97054A   20092.03090002 -.00000083 +00000-0 -68657-3 0  9991
2 24960 063.4063 357.9570 6386950 300.5761 011.7971 03.18686229182271
Epoch (UTC): 01 April 2020 00:44:29
Eccentricity: 0.6386950
inclination: 63.4063°
perigee height: 669 km
apogee height: 25585 km
right ascension of ascending node: 357.9570°
argument of perigee: 300.5761°
revolutions per day: 3.18686229
mean anomaly at epoch: 11.7971°
orbit number at epoch: 18227

The dashed part of the orbit path shows where the satellite is in the earth's shadow,  

DLR